User: anonymous   Login
Location: Unspecified
(42.6803°N, 0.0000°E)
Time: 18:22:30
(UTC+00:00)
Language:

SL-8 R/B - Orbit

View from above orbital plane
View from above orbital plane
View from above satellite
View from above satellite

Ground track
Ground track

The orbit is defined by the following mean orbital elements,

1 35637U          26088.19921631 +.00000000 +00000-0 +87764-4 0 00009
2 35637  82.9521  74.3841 0017305  63.0781 309.0185 13.91727071    05
Epoch (UTC): 29 March 2026 04:46:52
Eccentricity: 0.0017305
inclination: 82.9521°
perigee height: 910 km
apogee height: 935 km
right ascension of ascending node: 74.3841°
argument of perigee: 63.0781°
revolutions per day: 13.91727071
mean anomaly at epoch: 309.0185°

The dashed part of the orbit path shows where the satellite is in the earth's shadow,  

DLR